Regional Weather Roundup
Issued by NWS New Orleans/Baton Rouge, LA

Home | Current Version | Previous Version | Text Only | Print | Product List | Glossary On
Versions: 1 2 3 4 5 6 7 8 9 10 11 12 13 14 15 16 17 18 19 20 21 22 23 24 25 26 27 28 29 30 31 32 33 34 35 36 37 38 39 40 41 42 43 44 45 46 47 48 49 50
001
ASUS44 KLIX 021201
RWRLIX
NEW ORLEANS REGIONAL WEATHER ROUNDUP
NATIONAL WEATHER SERVICE NEW ORLEANS LA
600 AM CST MON MAR 02 2015

NOTE: "FAIR" INDICATES FEW OR NO CLOUDS BELOW 12,000 FEET WITH NO
      SIGNIFICANT WEATHER AND/OR OBSTRUCTIONS TO VISIBILITY.
      SKY/WX - SKY CONDITION AND SIGNIFICANT WEATHER.
      TMP - AIR TEMPERATURE.     DP    - DEWPOINT TEMPERATURE.
      RH  - RELATIVE HUMIDITY.   PRES  - PRESSURE.
      HI  - HEAT INDEX.          WCI   - WIND CHILL INDEX.

*  THESE STATIONS ARE NOT NWS OR FAA STATIONS AND ARE NOT UNDER
   NWS QUALITY CONTROL.

LAZ038-040-048-061>063-065>067-069-021300-
SOUTHEAST LOUISIANA

CITY           SKY/WX    TMP DP  RH WIND       PRES   REMARKS
N.O. AUDUBON     N/A     61  61 100 MISG        N/A
6HR MIN TEMP:  58; 6HR MAX TEMP:  61; 6HR PCP:  0.29;

N.O. INTL ARPT CLOUDY    61  58  90 E5        30.25S
6HR MIN TEMP:  59; 6HR MAX TEMP:  61; 6HR PCP:  0.99;

N.O. LAKEFRONT FOG       59  56  89 E9        30.26S VSB 1
6HR MIN TEMP:  57; 6HR MAX TEMP:  61; 6HR PCP:  1.31;

SLIDELL        LGT RAIN  61  60  97 SE6       30.25S
6HR MIN TEMP:  60; 6HR MAX TEMP:  61; 6HR PCP:  1.00;

BATON ROUGE    CLOUDY    60  60 100 E5        30.24S
6HR MIN TEMP:  60; 6HR MAX TEMP:  62; 6HR PCP:  0.25;

BOOTHVILLE     FOG       64  64 100 E5        30.26R VSB 1/4
6HR MIN TEMP:  58; 6HR MAX TEMP:  64;

BELLE CHASSE   CLOUDY    62  59  90 E5        30.25S FOG
6HR MIN TEMP:  57; 6HR MAX TEMP:  62;

BOGALUSA*        N/A     62  59  91 S3        30.27S
6HR MIN TEMP:  61; 6HR MAX TEMP:  62; 6HR PCP:  0.03;

GALLIANO*      CLOUDY    53  52  98 CALM      30.25S
6HR MIN TEMP:  53; 6HR MAX TEMP:  57; 6HR PCP:  0.15;

NEW ROADS*     RAIN      61  60  97 E3        30.24S
6HR MIN TEMP:  60; 6HR MAX TEMP:  62; 6HR PCP:  0.32;

GONZALES*      NOT AVBL
HAMMOND*       NOT AVBL
HOUMA*         CLOUDY    61  61 100 MISG      30.24S
PORT FOURCHON* FOG       63  61  94 NE3       30.28R VSB 1/2

$$

MSZ070-080>082-021300-
SOUTHERN MISSISSIPPI

CITY           SKY/WX    TMP DP  RH WIND       PRES   REMARKS
MCCOMB         LGT RAIN  60  59  96 CALM      30.26R FOG
6HR MIN TEMP:  60; 6HR MAX TEMP:  62; 6HR PCP:  0.05;

GULFPORT       LGT RAIN  58  57  97 E6        30.26S FOG
6HR MIN TEMP:  57; 6HR MAX TEMP:  59; 6HR PCP:  0.43;

BILOXI         LGT RAIN  58  58 100 SE7       30.26S
6HR MIN TEMP:  57; 6HR MAX TEMP:  59; 6HR PCP:  0.28;

PASCAGOULA     LGT RAIN  57  57 100 SE5       30.27S VSB 1/4
6HR MIN TEMP:  57; 6HR MAX TEMP:  58; 6HR PCP:  0.35;


$$

COASTAL OBSERVATIONS
LAKE AND NEARSHORE STATIONS

STATION/POSITION TIME  TEMP    WIND        PRES    WAVE
                       AIR SEA DIR/SP/G            HT/PER
                 (UTC) (F)     (DEG/KT/KT) (MB)    (FT/S)
PASCAGOULA       1100   60     100/  6/ 11 1024.5
WAVELAND YACHT   1100   57 54  160/  5/  6 1024.6
GRAND ISLE       1100   60 60   20/  3/  5 1024.7
SOUTHWEST PASS   1100   59 47   90/  8/  9 1024.5
NEW CANAL        1120   56      70/  2/  3 1024.6
SHELL BEACH      1100   65 55  100/ 13/ 16 1024.5

OFFSHORE STATIONS

STATION/POSITION TIME  TEMP    WIND        PRES    WAVE
                       AIR SEA DIR/SP/G            HT/PER
                 (UTC) (F)     (DEG/KT/KT) (MB)    (FT/S)
64 S DAUPHIN ISL 1054   69 71  130/ 14/ 17 1025.0    3/ 6

$$




USA.gov is the U.S. government's official web portal to all federal, state and local government web resources and services.